• In Belarus
  • List of Countries
  • For 7 days
  • Water Temperature
  • Satellite Maps
  • Weather Map
  • Weather Widgets
  • user-avatar
    Login

    Hourly Weather Dhaka

    Today, 21 February, Thursday

    Time Temperature Precipitation Wind Pressure Humidity
    00:00 +24°C° 0 mm 1 mps 762 mmHg 40%
    01:00 +24°C° 0 mm 1 mps 762 mmHg 42%
    02:00 +23°C° 0 mm 1 mps 762 mmHg 43%
    03:00 +23°C° 0 mm 2 mps 761 mmHg 45%
    04:00 +21°C° 0 mm 2 mps 761 mmHg 45%
    05:00 +21°C° 0 mm 2 mps 762 mmHg 45%
    06:00 +20°C° 0 mm 2 mps 761 mmHg 47%
    07:00 +23°C° 0 mm 2 mps 762 mmHg 45%
    08:00 +25°C° 0 mm 2 mps 762 mmHg 43%
    09:00 +27°C° 0 mm 2 mps 762 mmHg 41%
    10:00 +28°C° 0 mm 2 mps 762 mmHg 38%
    11:00 +30°C° 0 mm 2 mps 762 mmHg 34%
    12:00 +32°C° 0 mm 1 mps 762 mmHg 31%
    13:00 +34°C° 0 mm 2 mps 761 mmHg 29%
    14:00 +34°C° 0 mm 3 mps 760 mmHg 27%
    15:00 +35°C° 0 mm 4 mps 760 mmHg 25%
    16:00 +33°C° 0 mm 3 mps 759 mmHg 28%
    17:00 +31°C° 0 mm 3 mps 759 mmHg 31%
    18:00 +29°C° 0 mm 2 mps 759 mmHg 35%
    19:00 +28°C° 0 mm 2 mps 759 mmHg 38%
    20:00 +27°C° 0 mm 2 mps 759 mmHg 41%
    21:00 +26°C° 0 mm 2 mps 760 mmHg 44%
    22:00 +26°C° 0 mm 2 mps 760 mmHg 46%
    23:00 +25°C° 0 mm 2 mps 760 mmHg 48%

    Tomorrow, 22 February, Friday

    Time Temperature Precipitation Wind Pressure Humidity
    00:00 +24°C° 0 mm 2 mps 760 mmHg 50%
    01:00 +24°C° 0 mm 1 mps 759 mmHg 55%
    02:00 +24°C° 0 mm 1 mps 759 mmHg 59%
    03:00 +23°C° 0 mm 1 mps 759 mmHg 63%
    04:00 +23°C° 0 mm 1 mps 759 mmHg 67%
    05:00 +22°C° 0 mm 1 mps 759 mmHg 70%
    06:00 +22°C° 0 mm 1 mps 759 mmHg 73%
    07:00 +24°C° 0 mm 1 mps 759 mmHg 69%
    08:00 +25°C° 0 mm 1 mps 760 mmHg 64%
    09:00 +27°C° 0 mm 1 mps 760 mmHg 59%
    10:00 +29°C° 0 mm 1 mps 760 mmHg 51%
    11:00 +31°C° 0 mm 2 mps 760 mmHg 44%
    12:00 +34°C° 0 mm 2 mps 759 mmHg 36%
    13:00 +34°C° 0 mm 3 mps 758 mmHg 33%
    14:00 +35°C° 0 mm 3 mps 757 mmHg 31%
    15:00 +36°C° 0 mm 4 mps 757 mmHg 28%
    16:00 +35°C° 0 mm 3 mps 756 mmHg 31%
    17:00 +32°C° 0 mm 2 mps 756 mmHg 33%
    18:00 +31°C° 0 mm 2 mps 756 mmHg 36%
    19:00 +30°C° 0 mm 1 mps 756 mmHg 38%
    20:00 +29°C° 0 mm 1 mps 757 mmHg 40%
    21:00 +26°C° 0 mm 0 mps 757 mmHg 41%
    22:00 +28°C° 0 mm 1 mps 757 mmHg 47%
    23:00 +27°C° 0 mm 1 mps 757 mmHg 53%

    Day after tomorrow, 23 February, Saturday

    Time Temperature Precipitation Wind Pressure Humidity
    00:00 +26°C° 0 mm 2 mps 757 mmHg 59%
    01:00 +26°C° 0 mm 2 mps 756 mmHg 61%
    02:00 +25°C° 0 mm 2 mps 756 mmHg 64%
    03:00 +25°C° 0 mm 2 mps 756 mmHg 66%
    04:00 +25°C° 0 mm 2 mps 756 mmHg 65%
    05:00 +24°C° 0 mm 2 mps 756 mmHg 63%
    06:00 +24°C° 0 mm 1 mps 756 mmHg 61%
    07:00 +26°C° 0 mm 1 mps 757 mmHg 55%
    08:00 +28°C° 0 mm 1 mps 757 mmHg 50%
    09:00 +30°C° 0 mm 2 mps 758 mmHg 44%
    10:00 +31°C° 0 mm 2 mps 758 mmHg 39%
    11:00 +34°C° 0 mm 3 mps 757 mmHg 35%
    12:00 +36°C° 0 mm 4 mps 757 mmHg 31%
    13:00 +37°C° 0 mm 4 mps 756 mmHg 29%
    14:00 +37°C° 0 mm 4 mps 755 mmHg 27%
    15:00 +39°C° 0 mm 5 mps 754 mmHg 26%
    16:00 +36°C° 0 mm 4 mps 754 mmHg 28%
    17:00 +35°C° 0 mm 4 mps 754 mmHg 31%
    18:00 +33°C° 0 mm 3 mps 754 mmHg 34%
    19:00 +31°C° 0 mm 2 mps 754 mmHg 36%
    20:00 +30°C° 0 mm 2 mps 755 mmHg 38%
    21:00 +29°C° 0 mm 1 mps 756 mmHg 40%
    22:00 +29°C° 0 mm 1 mps 756 mmHg 44%
    23:00 +28°C° 0 mm 1 mps 756 mmHg 47%

    24 February, Sunday

    Time Temperature Precipitation Wind Pressure Humidity
    00:00 +27°C° 0 mm 1 mps 756 mmHg 51%
    01:00 +26°C° 0 mm 1 mps 756 mmHg 49%
    02:00 +26°C° 0 mm 1 mps 756 mmHg 47%
    03:00 +26°C° 0 mm 2 mps 755 mmHg 46%
    04:00 +25°C° 0 mm 2 mps 756 mmHg 46%
    05:00 +24°C° 0 mm 2 mps 756 mmHg 46%
    06:00 +24°C° 0 mm 2 mps 756 mmHg 46%
    07:00 +25°C° 0 mm 2 mps 757 mmHg 43%
    08:00 +27°C° 0 mm 2 mps 757 mmHg 40%
    09:00 +29°C° 0 mm 2 mps 758 mmHg 38%
    10:00 +30°C° 0 mm 2 mps 758 mmHg 33%
    11:00 +33°C° 0 mm 3 mps 758 mmHg 28%
    12:00 +34°C° 0 mm 3 mps 757 mmHg 23%
    13:00 +35°C° 0 mm 3 mps 757 mmHg 22%
    14:00 +35°C° 0 mm 4 mps 756 mmHg 22%
    15:00 +36°C° 0 mm 4 mps 755 mmHg 22%
    16:00 +34°C° 0 mm 3 mps 755 mmHg 24%
    17:00 +33°C° 0 mm 3 mps 755 mmHg 25%
    18:00 +31°C° 0 mm 2 mps 755 mmHg 27%
    19:00 +30°C° 0 mm 2 mps 755 mmHg 27%
    20:00 +30°C° 0 mm 2 mps 756 mmHg 27%
    21:00 +29°C° 0 mm 1 mps 756 mmHg 27%
    22:00 +28°C° 0 mm 1 mps 756 mmHg 29%
    23:00 +27°C° 0 mm 1 mps 757 mmHg 30%

    25 February, Monday

    Time Temperature Precipitation Wind Pressure Humidity
    00:00 +27°C° 0 mm 1 mps 757 mmHg 31%
    01:00 +26°C° 0 mm 1 mps 756 mmHg 31%
    02:00 +26°C° 0 mm 1 mps 756 mmHg 32%
    03:00 +25°C° 0 mm 1 mps 756 mmHg 33%
    04:00 +25°C° 0 mm 1 mps 756 mmHg 33%
    05:00 +25°C° 0 mm 1 mps 756 mmHg 33%
    06:00 +25°C° 0 mm 1 mps 757 mmHg 33%
    07:00 +26°C° 0 mm 1 mps 757 mmHg 32%
    08:00 +27°C° 0 mm 1 mps 758 mmHg 31%
    09:00 +28°C° 0 mm 1 mps 759 mmHg 31%
    10:00 +29°C° 0 mm 1 mps 759 mmHg 30%
    11:00 +30°C° 0 mm 1 mps 759 mmHg 29%
    12:00 +30°C° 0 mm 1 mps 758 mmHg 29%
    13:00 +30°C° 0 mm 3 mps 758 mmHg 35%
    14:00 +29°C° 0 mm 4 mps 758 mmHg 41%
    15:00 +28°C° 0 mm 5 mps 757 mmHg 48%
    16:00 +28°C° 0 mm 4 mps 757 mmHg 49%
    17:00 +27°C° 0 mm 3 mps 757 mmHg 51%
    18:00 +27°C° 0 mm 2 mps 757 mmHg 53%
    19:00 +26°C° 0 mm 2 mps 758 mmHg 54%
    20:00 +26°C° 0 mm 3 mps 758 mmHg 54%
    21:00 +26°C° 0 mm 4 mps 759 mmHg 55%
    22:00 +25°C° 0 mm 3 mps 759 mmHg 58%
    23:00 +25°C° 0 mm 3 mps 759 mmHg 61%

    26 February, Tuesday

    Time Temperature Precipitation Wind Pressure Humidity
    00:00 +24°C° 0 mm 3 mps 759 mmHg 63%
    01:00 +24°C° 0 mm 2 mps 758 mmHg 63%
    02:00 +23°C° 0 mm 2 mps 758 mmHg 62%
    03:00 +23°C° 0 mm 1 mps 757 mmHg 62%
    04:00 +23°C° 0 mm 1 mps 758 mmHg 62%
    05:00 +23°C° 0 mm 1 mps 758 mmHg 62%
    06:00 +23°C° 0 mm 1 mps 758 mmHg 62%
    07:00 +23°C° 0.1 mm 2 mps 759 mmHg 63%
    08:00 +22°C° 0.1 mm 3 mps 760 mmHg 65%
    09:00 +24°C° 0.1 mm 3 mps 761 mmHg 66%
    10:00 +25°C° 0.1 mm 3 mps 761 mmHg 61%
    11:00 +26°C° 0.1 mm 3 mps 760 mmHg 57%
    12:00 +27°C° 0.1 mm 3 mps 760 mmHg 52%
    13:00 +28°C° 0 mm 3 mps 759 mmHg 49%
    14:00 +28°C° 0 mm 3 mps 758 mmHg 46%
    15:00 +29°C° 0 mm 3 mps 757 mmHg 43%
    16:00 +28°C° 0 mm 3 mps 757 mmHg 46%
    17:00 +27°C° 0 mm 3 mps 757 mmHg 49%
    18:00 +26°C° 0 mm 3 mps 757 mmHg 53%
    19:00 +25°C° 1.6 mm 4 mps 757 mmHg 59%
    20:00 +23°C° 1.6 mm 4 mps 758 mmHg 66%
    21:00 +22°C° 1.6 mm 5 mps 759 mmHg 72%
    22:00 +22°C° 0.8 mm 4 mps 759 mmHg 71%
    23:00 +22°C° 0.8 mm 3 mps 759 mmHg 69%
    Show more